Погода в Теплодаре

Украина / Одесская область     46°30′22″N   30°19′35″E
темп.,
°C
ветер,
м/с
пор.,
м/с
влажн.,
%
обл.,
%
осадки,
мм/ч
давл.,
гПа
погр.,
м
2 марта, вт
вт223:00+2с477498 0.0 1033644
02:00+2с478097 0.0 1033329
05:00+2сз3572100 0.0 1032221
08:00+2зсз117480 0.0 103292
11:00+6зсз456131 0.0 10311030
14:00+9зсз575245 0.0 10281022
17:00+8з5105858 0.0 1026804
20:00+6з5126738 0.0 1025320
3 марта, ср
ср323:00+5сз5137719 0.0 1025468
02:00+4ссз5128215 0.0 1027525
05:00+4с6972100 0.0 1027847
08:00+4ссз586687 0.0 1029931
11:00+7ссз57550 0.0 10301104
14:00+9ссз45420 0.0 10291282
17:00+8сз344724 0.0 10281163
20:00+6зсз225862 0.0 102822
4 марта, чт
чт423:00+4юз116029 0.0 102822
02:00+3ююз346414 0.0 102642
05:00+3ююз34830 0.0 102384
08:00+4ююз410810 0.0 1022308
11:00+10ююз610580 0.0 1020725
14:00+13юз710500 0.0 10171008
17:00+12юз495322 0.0 1015422
20:00+8ююз487511 0.0 1015159
5 марта, пт
пт523:00+6ююз358311 0.0 1014104
02:00+6ююз238428 0.0 101339
05:00+5ю348357 0.0 101240
08:00+6ююз248178 0.0 1012119
11:00+12юз3549100 0.0 1011446
14:00+15зюз344088 0.0 1010933
17:00+14ссз23439 0.0 101076
20:00+9св5106518 0.0 1011246
6 марта, сб
сб623:00+7ссв378025 0.0 1012188
02:00+6с598760 0.0 1014395
05:00+5с71087100 0.1 1016498
08:00+2ссв81274100 0.2 1019785
11:00+4с81047100 0.0 10211259
14:00+4с7943100 0.0 10221542
17:00+3с7935100 0.0 10241654
20:00+1ссз384951 0.0 1026232